DW7431 Cala Millor ES current weather conditions

sailwx.info

Wind from 202 at 5 knots gusting 4

Air temperature 16.1° C
Dewpoint 11.5° C

Last reported at 2016-Feb-10 23:01 UTC.
Time now 2016-Feb-11 06:36 UTC

Location: N 39°36' E 003°22'.
View on Google Maps.

See reports from other nearby stations

  
Tides and Currents Weather Stations Pressure Air Temp Water Temp Dewpoint Dewpoint Depression Visibility Wind Speed Wind Dir Waves Ship Positions
date/time (UTC)wind fromknots sea level pressurealtimeterstation pressurevisibilityair tempwater tempwave heightnotes
2016-Feb-10 23:01 202 5 gusting 4 16.1
2016-Feb-10 22:01 270 8 gusting 8 17.2
2016-Feb-10 18:01 270 8 gusting 13 16.1
2016-Feb-10 15:01 315 13 gusting 15 18.3
2016-Feb-10 12:01 292 7 gusting 6 19.4
2016-Feb-10 11:01 315 5 gusting 10 20.6
2016-Feb-10 09:01 022 4 gusting 6 14.4
2016-Feb-10 08:01 022 4 gusting 4 13.3
2016-Feb-10 07:01 337 5 gusting 6 12.8
2016-Feb-10 04:01 270 5 gusting 6 16.1
2016-Feb-10 03:01 270 11 gusting 13 16.7
2016-Feb-10 02:01 292 11 gusting 9 16.7
2016-Feb-09 23:01 292 15 gusting 9 17.2
2016-Feb-09 22:01 292 14 gusting 19 17.2
2016-Feb-09 20:01 270 13 gusting 17 15.6
2016-Feb-09 16:01 270 19 gusting 17 16.1
2016-Feb-09 14:01 315 19 gusting 18 17.8
2016-Feb-09 13:01 270 10 gusting 16 17.2
2016-Feb-09 12:01 270 13 gusting 14 16.7
2016-Feb-09 10:01 247 14 gusting 24 16.7
2016-Feb-09 08:01 292 9 gusting 12 13.9
2016-Feb-09 07:01 270 10 gusting 9 12.8